Location: Beaurecueil
(43.5122°N, 5.5450°E)
Time: 16:21:55
(UTC+00:00)

Okean 2 - Pass Details

Date: 18 September 2020
Orbit: 560 x 577 km, 82.5° (Epoch: 20 October)

Event Time Altitude Azimuth Distance (km) Brightness Sun altitude
Rises 18:29:10 0° 350° (N) 2,801 7.2 -9.3°
Reaches altitude 10° 18:31:22 10° 350° (N) 1,896 6.4 -9.7°
Maximum altitude 18:35:33 81° 264° (W) 588 3.5 -10.5°
Drops below altitude 10° 18:39:41 10° 177° (S) 1,873 5.9 -11.2°
Sets 18:41:51 0° 176° (S) 2,764 6.7 -11.6°
